Regional Weather Roundup
Issued by NWS

Home | Current Version | Previous Version | Text Only | Print | Product List | Glossary On
Versions: 1 2 3 4 5 6 7 8 9 10 11 12 13 14 15 16 17 18 19 20 21 22 23 24 25 26 27 28 29 30 31 32 33 34 35 36 37 38 39 40 41 42 43 44 45 46 47 48 49 50
646
ASUS43 KDTX 200401
RWRMI
MICHIGAN HOURLY REGIONAL WEATHER ROUNDUP
NATIONAL WEATHER SERVICE DETROIT/PONTIAC MI
1200 AM EDT FRI APR 20 2018

NOTE: "FAIR" INDICATES FEW OR NO CLOUDS BELOW 12,000 FEET WITH NO
SIGNIFICANT WEATHER AND/OR OBSTRUCTION TO VISIBILITY.

MIZ047>049-052>055-059>063-066>070-074>076-081>083-200500-
SOUTHEAST LOWER MICHIGAN

CITY           SKY/WX    TMP DP  RH WIND       PRES   REMARKS
ADRIAN         FAIR      40  19  43 N9        30.34R WCI  34
ALMA           FAIR      36  20  53 NW6       30.36S WCI  31
ANN ARBOR      FAIR      41  18  39 NW10      30.32R
BAD AXE        FAIR      37  20  50 NW5       30.31S WCI  34
CARO           FAIR      37  25  61 NW9       30.32S WCI  30
DETROIT CITY   FAIR      36  24  62 CALM      30.32R
DETROIT        FAIR      35  27  72 SW6       30.33R WCI  30
FLINT          FAIR      38  20  48 NW10      30.33R WCI  31
GROSSE ILE     FAIR      34  29  83 CALM      30.32R
HILLSDALE      FAIR      37  21  52 NW9       30.33R WCI  31
HOWELL         FAIR      38  18  44 NW7       30.33R WCI  33

CITY           SKY/WX    TMP DP  RH WIND       PRES   REMARKS
JACKSON        FAIR      41  18  39 NW13      30.34R
LAMBERTVILLE   FAIR      38  32  81 CALM      30.33R
LANSING        FAIR      38  17  42 NW6       30.36R WCI  33
LAPEER         FAIR      36  23  58 NW6       30.32R WCI  32
MASON          FAIR      40  13  33 N12       30.34R WCI  33
MONROE         FAIR      34  30  86 CALM      30.33R
MT. CLEMENS    FAIR      34  28  78 W7          N/A  WCI  28
PONTIAC        FAIR      39  22  50 NW7       30.30R WCI  34
PORT HOPE        N/A     37  27  67 NW14      30.28R WCI  28
PORT HURON     FAIR      28  23  80 CALM      30.30S
TRI CITIES     FAIR      36  23  59 NW9       30.35R WCI  29
MIDLAND        NOT AVBL
TROY           FAIR      38  27  64 SW3       30.34R
SAGINAW HB     FAIR      36  25  64 N8        30.34R WCI  29
$$
MIZ043>046-050>051-056>058-064>065-071>073-077>080-200500-
SOUTHWEST LOWER MICHIGAN

CITY           SKY/WX    TMP DP  RH WIND       PRES   REMARKS
BATTLE CREEK   FAIR      37  23  56 NW8       30.36R WCI  31
BENTON HARBOR  FAIR      31  26  82 CALM      30.40S
BIG RAPIDS     FAIR      32  16  52 CALM      30.37S
COLDWATER      FAIR      37  24  59 NW7       30.35S WCI  32
FREMONT        FAIR      33  15  47 CALM      30.39R
HOLLAND        FAIR      34  26  72 CALM      30.40R
GRAND RAPIDS   FAIR      39  20  46 NW9       30.38R WCI  33
IONIA          FAIR      38  16  41 NW6       30.36R WCI  33
KALAMAZOO      FAIR      37  20  50 NW10      30.38R WCI  30
LUDINGTON      FAIR      28  26  94 CALM      30.40R
MARSHALL       FAIR      37  15  40 CALM      30.35R
MOUNT PLEASANT FAIR      38  20  48 NW3       30.35R
MUSKEGON       FAIR      36  26  67 NW3       30.40R
SOUTH HAVEN    FAIR      30  27  89 CALM      30.40S
$$
MIZ016>042-200500-
NORTHERN LOWER MICHIGAN

CITY           SKY/WX    TMP DP  RH WIND       PRES   REMARKS
ALPENA         FAIR      35  20  54 NW8       30.32R WCI  29
BEAVER ISLAND  FAIR      35  17  48 W3        30.36S
BELLAIRE       FAIR      26  21  80 CALM      30.38R
CADILLAC       FAIR      29  17  60 CALM      30.35R
CHARLEVOIX     FAIR      36  19  51 CALM      30.40R
FRANKFORT      FAIR      30  23  74 CALM      30.40R
GAYLORD        FAIR      32  17  54 CALM      30.32S
GRAYLING       FAIR      30  19  63 W7        30.33S WCI  23
HARBOR SPRINGS FAIR      32  18  56 CALM      30.35R
HOUGHTON LAKE  FAIR      31  18  58 NW6       30.34S WCI  25
MANISTEE       FAIR      26  23  88 CALM      30.40R
OSCODA         FAIR      36  18  48 NW10      30.30S WCI  28
PELLSTON       FAIR      30  20  66 W6        30.35S WCI  24
ROGERS CITY    FAIR      35  21  55 NW9G16    30.33S WCI  28
TRAVERSE CITY  FAIR      30  23  75 CALM      30.38R
$$
MIZ007>008-015-200500-
EASTERN UPPER MICHIGAN

CITY           SKY/WX    TMP DP  RH WIND       PRES   REMARKS
KINROSS        FAIR      31  25  78 NW12      30.34R WCI  22
MACKINAC ISLAN FAIR      33  19  57 NW6       30.34R WCI  27
NEWBERRY       FAIR      28  17  62 CALM      30.35R
S. S. MARIE    FAIR      34  26  72 NW7       30.33R WCI  28
MUNISING         N/A     28  21  75 S5        30.37S WCI  23
$$
MIZ004>006-011>014-085-200500-
CENTRAL UPPER MICHIGAN

CITY           SKY/WX    TMP DP  RH WIND       PRES   REMARKS
MANISTIQUE     FAIR      32  11  41 NW6       30.36S WCI  27
ESCANABA       FAIR      29  18  63 CALM      30.38S
MENOMINEE      FAIR      28  20  71 CALM      30.41R
$$
MIZ001>003-009>011-084-200500-
WESTERN UPPER MICHIGAN

CITY           SKY/WX    TMP DP  RH WIND       PRES   REMARKS
IRON MOUNTAIN  FAIR      27  17  66 CALM      30.37S
HOUGHTON       FAIR      31  13  47 NW9       30.36F WCI  23
COPPER HARBOR    N/A     29  18  63 W3        30.37F
IRONWOOD       FAIR      28  20  71 E3        30.40S
$$

ABBREVIATIONS USED IN REMARKS
   TC - TEMPERATURE IN CELSIUS
  WCI - WIND CHILL INDEX
   HX - HEAT INDEX
  VSB - VISIBILITY





USA.gov is the U.S. government's official web portal to all federal, state and local government web resources and services.